Location: Fredericksburg
(30.2750°N, 98.8720°W)
Time: 05:28:17
(UTC-05:00)

PCSat - Visible Passes

Search period start: 28 August 2016 00:00
Search period end: 07 September 2016 00:00
Orbit: 786 x 794 km, 67.1° (Epoch: 28 August)

Date Brightness Start Highest point End Pass type
(mag) Time Alt. Az. Time Alt. Az. Time Alt. Az.
28 Aug 11.4 20:54:47 10° NNE 20:57:40 14° NE 20:59:34 12° ENE visible
28 Aug 10.3 22:36:07 10° NNW 22:40:18 50° WNW 22:40:18 50° WNW visible
29 Aug 9.4 22:05:14 10° NNW 22:10:37 87° NNE 22:10:37 87° NNE visible
30 Aug 9.6 21:34:28 10° NNW 21:39:50 61° ENE 21:41:01 48° ESE visible
30 Aug 12.2 23:20:22 10° WNW 23:21:47 12° W 23:21:47 12° W visible
31 Aug 10.0 21:03:50 10° N 21:08:57 42° ENE 21:11:32 25° ESE visible
31 Aug 11.7 22:48:14 10° WNW 22:51:58 19° WSW 22:52:17 19° WSW visible
01 Sep 10.5 20:33:19 10° N 20:38:02 30° ENE 20:42:09 13° ESE visible
01 Sep 11.2 22:16:44 10° NW 22:21:17 28° WSW 22:22:54 24° SW visible
02 Sep 10.7 21:45:31 10° NW 21:50:33 41° WSW 21:53:39 21° SSW visible
03 Sep 10.0 21:14:28 10° NNW 21:19:47 60° WSW 21:24:32 13° S visible
04 Sep 9.6 20:43:34 10° NNW 20:49:00 87° WSW 20:54:24 10° SSE visible
05 Sep 9.6 20:12:47 10° NNW 20:18:10 65° ENE 20:23:31 10° SSE visible
05 Sep 12.3 21:59:07 10° W 22:00:55 12° WSW 22:02:42 10° WSW visible
06 Sep 12.1 21:26:44 10° WNW 21:30:16 18° WSW 21:33:46 10° SW visible
